| time (UTC) | temp F | wind direction | speed MPH | gust MPH | rain 1hr in | rain 24hr in | rain mn in | humidity % | barometer mb |
| 20260905220010 | 53 | 109 | 1.0 | 6.0 | 0.00 | 0.00 | 0.00 | 88 | 1020.1 |
| 20260905214507 | 53 | 216 | 0.0 | 5.0 | 0.00 | 0.00 | 0.00 | 88 | 1019.8 |
| 20260905213004 | 53 | 128 | 1.0 | 6.0 | 0.00 | 0.00 | 0.00 | 88 | 1019.4 |
| 20260905211501 | 53 | 159 | 1.0 | 5.0 | 0.00 | 0.00 | 0.00 | 88 | 1019.0 |
| 20260905210059 | 53 | 146 | 1.0 | 6.0 | 0.00 | 0.00 | 0.00 | 89 | 1018.7 |
| 20260905204557 | 53 | 121 | 2.0 | 6.0 | 0.00 | 0.00 | 0.00 | 89 | 1018.3 |
| 20260905203054 | 53 | 197 | 2.0 | 7.0 | 0.00 | 0.00 | 0.00 | 90 | 1017.9 |
| 20260905201551 | 54 | 203 | 0.0 | 5.0 | 0.00 | 0.00 | 0.00 | 90 | 1017.5 |
| 20260905200054 | 54 | 107 | 1.0 | 4.0 | 0.00 | 0.00 | 0.00 | 90 | 1017.3 |
| 20260905194552 | 54 | 209 | 1.0 | 5.0 | 0.00 | 0.00 | 0.00 | 90 | 1017.1 |
| 20260905193045 | 54 | 196 | 1.0 | 5.0 | 0.00 | 0.00 | 0.00 | 91 | 1017.0 |
| 20260905191543 | 53 | 211 | 1.0 | 4.0 | 0.00 | 0.00 | 0.00 | 90 | 1016.9 |
| 20260905190041 | 53 | 227 | 5.0 | 7.0 | 0.00 | 0.00 | 0.00 | 89 | 1016.8 |
| 20260905184548 | 53 | 223 | 4.0 | 6.0 | 0.00 | 0.00 | 0.00 | 89 | 1016.7 |
| 20260905183041 | 53 | 236 | 4.0 | 8.0 | 0.00 | 0.00 | 0.00 | 89 | 1016.6 |
| 20260905181535 | 53 | 223 | 5.0 | 10.0 | 0.00 | 0.00 | 0.00 | 89 | 1016.6 |
| 20260905180033 | 53 | 241 | 1.0 | 3.0 | 0.00 | 0.00 | 0.00 | 89 | 1016.6 |
| 20260905174540 | 53 | 241 | 0.0 | 0.0 | 0.00 | 0.00 | 0.00 | 89 | 1016.5 |
| 20260905173031 | 54 | 241 | 0.0 | 1.0 | 0.00 | 0.00 | 0.00 | 89 | 1016.6 |
| 20260905171534 | 54 | 241 | 0.0 | 2.0 | 0.00 | 0.00 | 0.00 | 90 | 1016.5 |
| 20260905170031 | 54 | 241 | 0.0 | 0.0 | 0.00 | 0.00 | 0.00 | 89 | 1016.5 |
| 20260905164529 | 54 | 240 | 2.0 | 5.0 | 0.00 | 0.00 | 0.00 | 90 | 1016.6 |
| 20260905163026 | 54 | 240 | 0.0 | 3.0 | 0.00 | 0.00 | 0.00 | 89 | 1016.6 |
| 20260905161524 | 54 | 240 | 1.0 | 4.0 | 0.00 | 0.00 | 0.00 | 89 | 1016.4 |
| 20260905160039 | 54 | 240 | 1.0 | 4.0 | 0.00 | 0.00 | 0.00 | 88 | 1016.5 |
| 20260905154521 | 53 | 115 | 0.0 | 3.0 | 0.00 | 0.00 | 0.00 | 89 | 1016.6 |
| 20260905153024 | 53 | 225 | 2.0 | 4.0 | 0.00 | 0.00 | 0.00 | 87 | 1016.6 |
| 20260905151520 | 53 | 225 | 1.0 | 4.0 | 0.00 | 0.00 | 0.00 | 86 | 1016.7 |
| 20260905150026 | 53 | 225 | 2.0 | 5.0 | 0.00 | 0.00 | 0.00 | 87 | 1016.9 |
| 20260905144538 | 52 | 225 | 0.0 | 0.0 | 0.00 | 0.00 | 0.00 | 87 | 1016.8 |
| 20260905143023 | 52 | 225 | 0.0 | 1.0 | 0.00 | 0.00 | 0.00 | 87 | 1016.7 |
| 20260905141530 | 51 | 225 | 0.0 | 3.0 | 0.00 | 0.00 | 0.00 | 87 | 1017.0 |
| 20260905140017 | 51 | 225 | 3.0 | 5.0 | 0.00 | 0.00 | 0.00 | 88 | 1017.0 |
| 20260905134518 | 51 | 263 | 2.0 | 4.0 | 0.00 | 0.00 | 0.00 | 87 | 1017.1 |
| 20260905133018 | 51 | 19 | 0.0 | 0.0 | 0.00 | 0.00 | 0.00 | 88 | 1017.0 |
| 20260905131514 | 50 | 19 | 0.0 | 0.0 | 0.00 | 0.00 | 0.00 | 87 | 1016.9 |
| 20260905130015 | 50 | 19 | 0.0 | 0.0 | 0.00 | 0.00 | 0.00 | 87 | 1016.8 |
| 20260905124516 | 50 | 19 | 0.0 | 2.0 | 0.00 | 0.00 | 0.00 | 85 | 1016.7 |
| 20260905123014 | 51 | 19 | 1.0 | 3.0 | 0.00 | 0.00 | 0.00 | 86 | 1016.5 |
| 20260905121514 | 51 | 19 | 0.0 | 1.0 | 0.00 | 0.00 | 0.00 | 85 | 1016.4 |
| 20260905120012 | 51 | 19 | 0.0 | 4.0 | 0.00 | 0.00 | 0.00 | 86 | 1016.2 |
| 20260905114512 | 51 | 360 | 0.0 | 0.0 | 0.00 | 0.00 | 0.00 | 85 | 1016.2 |
| 20260905113015 | 51 | 360 | 0.0 | 0.0 | 0.00 | 0.00 | 0.00 | 82 | 1016.1 |
| 20260905111511 | 52 | 360 | 0.0 | 0.0 | 0.00 | 0.00 | 0.00 | 82 | 1016.1 |
| 20260905110015 | 52 | 360 | 0.0 | 0.0 | 0.00 | 0.00 | 0.00 | 82 | 1015.8 |
| 20260905104510 | 53 | 360 | 0.0 | 0.0 | 0.00 | 0.00 | 0.00 | 79 | 1015.4 |
| 20260905103017 | 55 | 360 | 0.0 | 0.0 | 0.00 | 0.00 | 0.00 | 76 | 1015.3 |
| 20260905101514 | 57 | 360 | 0.0 | 1.0 | 0.00 | 0.00 | 0.00 | 74 | 1015.1 |
| 20260905100008 | 58 | 360 | 1.0 | 4.0 | 0.00 | 0.00 | 0.00 | 71 | 1015.2 |
| 20260905094508 | 60 | 360 | 1.0 | 3.0 | 0.00 | 0.00 | 0.00 | 69 | 1015.2 |
| 20260905093007 | 61 | 268 | 2.0 | 6.0 | 0.00 | 0.00 | 0.00 | 67 | 1015.1 |
| 20260905091507 | 61 | 41 | 3.0 | 8.0 | 0.00 | 0.00 | 0.00 | 64 | 1015.2 |
| 20260905090006 | 62 | 327 | 3.0 | 12.0 | 0.00 | 0.00 | 0.00 | 63 | 1015.5 |
| 20260905084513 | 62 | 329 | 5.0 | 10.0 | 0.00 | 0.00 | 0.00 | 62 | 1015.6 |
| 20260905083005 | 62 | 331 | 4.0 | 10.0 | 0.00 | 0.00 | 0.00 | 62 | 1015.2 |
| 20260905081503 | 63 | 22 | 4.0 | 11.0 | 0.00 | 0.00 | 0.00 | 61 | 1015.0 |
| 20260905080003 | 63 | 22 | 5.0 | 14.0 | 0.00 | 0.00 | 0.00 | 61 | 1015.0 |
| 20260905074505 | 63 | 351 | 5.0 | 9.0 | 0.00 | 0.00 | 0.00 | 59 | 1015.2 |
| 20260905073108 | 63 | 304 | 4.0 | 11.0 | 0.00 | 0.00 | 0.00 | 61 | 1015.5 |
| 20260905071558 | 63 | 327 | 3.0 | 11.0 | 0.00 | 0.00 | 0.00 | 62 | 1015.7 |
| 20260905070058 | 63 | 360 | 5.0 | 13.0 | 0.00 | 0.00 | 0.00 | 59 | 1015.9 |
| 20260905064611 | 63 | 325 | 6.0 | 11.0 | 0.00 | 0.00 | 0.00 | 59 | 1015.7 |
| 20260905063100 | 63 | 309 | 4.0 | 12.0 | 0.00 | 0.00 | 0.00 | 61 | 1015.9 |
| 20260905061615 | 63 | 5 | 7.0 | 13.0 | 0.00 | 0.00 | 0.00 | 58 | 1015.6 |
| 20260905060052 | 63 | 303 | 8.0 | 11.0 | 0.00 | 0.00 | 0.00 | 58 | 1016.0 |
| 20260905054556 | 62 | 319 | 6.0 | 12.0 | 0.00 | 0.00 | 0.00 | 60 | 1016.1 |
| 20260905053048 | 62 | 336 | 4.0 | 10.0 | 0.00 | 0.00 | 0.00 | 64 | 1016.4 |
| 20260905051604 | 63 | 337 | 6.0 | 13.0 | 0.00 | 0.00 | 0.00 | 57 | 1016.5 |
| 20260905050044 | 61 | 328 | 4.0 | 11.0 | 0.00 | 0.00 | 0.00 | 59 | 1016.8 |
| 20260905044552 | 62 | 296 | 3.0 | 10.0 | 0.00 | 0.00 | 0.00 | 59 | 1016.9 |
| 20260905043040 | 61 | 333 | 6.0 | 10.0 | 0.00 | 0.00 | 0.00 | 60 | 1017.3 |
| 20260905041537 | 60 | 298 | 6.0 | 11.0 | 0.00 | 0.00 | 0.00 | 61 | 1017.4 |
| 20260905040044 | 60 | 296 | 5.0 | 11.0 | 0.00 | 0.00 | 0.00 | 62 | 1017.7 |
| 20260905034536 | 60 | 38 | 6.0 | 12.0 | 0.00 | 0.00 | 0.00 | 61 | 1018.1 |
| 20260905033043 | 61 | 341 | 8.0 | 14.0 | 0.00 | 0.00 | 0.00 | 64 | 1018.4 |
| 20260905031528 | 59 | 294 | 6.0 | 9.0 | 0.00 | 0.00 | 0.00 | 64 | 1018.6 |
| 20260905030024 | 59 | 329 | 5.0 | 9.0 | 0.00 | 0.00 | 0.00 | 64 | 1018.9 |
| 20260905024522 | 59 | 315 | 6.0 | 10.0 | 0.00 | 0.00 | 0.00 | 65 | 1019.1 |
| 20260905023042 | 58 | 346 | 8.0 | 12.0 | 0.00 | 0.00 | 0.00 | 66 | 1019.2 |
| 20260905021518 | 58 | 296 | 5.0 | 11.0 | 0.00 | 0.00 | 0.00 | 66 | 1019.6 |
| 20260905020022 | 58 | 335 | 6.0 | 11.0 | 0.00 | 0.00 | 0.00 | 64 | 1019.7 |
| 20260905014512 | 58 | 326 | 4.0 | 9.0 | 0.00 | 0.00 | 0.00 | 65 | 1019.8 |
| 20260905013007 | 57 | 349 | 6.0 | 13.0 | 0.00 | 0.00 | 0.00 | 71 | 1020.0 |
| 20260905011503 | 56 | 38 | 3.0 | 9.0 | 0.00 | 0.00 | 0.00 | 73 | 1020.1 |
| 20260905010059 | 55 | 346 | 4.0 | 9.0 | 0.00 | 0.00 | 0.00 | 73 | 1020.3 |
| 20260905004556 | 54 | 350 | 3.0 | 8.0 | 0.00 | 0.00 | 0.00 | 77 | 1020.4 |
| 20260905003054 | 54 | 320 | 4.0 | 7.0 | 0.00 | 0.00 | 0.00 | 78 | 1020.4 |
| 20260905001552 | 53 | 16 | 3.0 | 6.0 | 0.00 | 0.00 | 0.00 | 80 | 1020.3 |
| 20260905000100 | 52 | 18 | 3.0 | 8.0 | 0.00 | 0.00 | 0.00 | 81 | 1020.3 |
| 20260904234544 | 51 | 31 | 2.0 | 4.0 | 0.00 | 0.00 | 0.00 | 82 | 1020.2 |
| 20260904233045 | 50 | 46 | 1.0 | 5.0 | 0.00 | 0.00 | 0.00 | 86 | 1020.4 |
| 20260904231537 | 49 | 57 | 0.0 | 3.0 | 0.00 | 0.00 | 0.00 | 87 | 1020.4 |
| 20260904230036 | 48 | 57 | 1.0 | 4.0 | 0.00 | 0.00 | 0.00 | 87 | 1020.3 |
| 20260904224536 | 48 | 57 | 1.0 | 3.0 | 0.00 | 0.00 | 0.00 | 86 | 1020.4 |
| 20260904223035 | 48 | 57 | 2.0 | 4.0 | 0.00 | 0.00 | 0.00 | 86 | 1020.3 |
| 20260904221535 | 48 | 69 | 2.0 | 4.0 | 0.00 | 0.00 | 0.00 | 86 | 1020.3 |